This demonstration page uses our WeatherBlox Daily Observations layout. Learn more.

40.92945, -100.16068

Hourly Observations for September 27, 2018

Temp ( °F °C ) Dew Point ( °F °C ) Humidity (%) Winds ( mph kmh ) Pressure ( in mb ) Visibility ( mi km ) Precip ( " mm )
12:15 am 00:15 Clear 62 16.4 36 2.2 39 39 SSW 15 24 30 1016 10 16.0934 0 0
12:35 am 00:35 Clear 61 16.2 36 2.2 39 39 SSW 14 22 30 1016 10 16.0934 0 0
12:55 am 00:55 Clear 61 16 36 2.3 40 40 SSW 15 24 30 1016 10 16.0934 0 0
1:15 am 01:15 Clear 60 15.8 36 2.3 40 40 SSW 16 26 30 1016 10 16.0934 0 0
1:35 am 01:35 Clear 60 15.7 37 2.5 41 41 SSW 15 24 30 1016 10 16.0934 0 0
1:55 am 01:55 Clear 60 15.4 37 2.5 42 42 SSW 14 22 30 1016 10 16.0934 0 0
2:15 am 02:15 Clear 59 15.1 37 2.7 44 44 SSW 13 20 30 1016 10 16.0934 0 0
2:35 am 02:35 Clear 59 15 37 2.6 44 44 SSW 15 24 30 1016 10 16.0934 0 0
2:55 am 02:55 Clear 58 14.7 37 2.7 45 45 SSW 16 26 29.97 1015 10 16.0934 0 0
3:15 am 03:15 Clear 58 14.4 37 3 47 47 SSW 17 28 29.97 1015 10 16.0934 0 0
3:35 am 03:35 Clear 58 14.2 37 3 47 47 SSW 17 28 29.97 1015 10 16.0934 0 0
3:55 am 03:55 Clear 57 14 38 3.2 48 48 SSW 15 24 29.97 1015 10 16.0934 0 0
4:15 am 04:15 Clear 57 13.8 38 3.3 49 49 SSW 14 22 29.94 1014 10 16.0934 0 0
4:35 am 04:35 Clear 56 13.5 38 3.5 51 51 SSW 16 26 29.94 1014 10 16.0934 0 0
4:55 am 04:55 Clear 57 13.7 38 3.4 50 50 SSW 16 26 29.94 1014 10 16.0934 0 0
5:15 am 05:15 Clear 56 13.4 38 3.4 51 51 SW 8 13 29.94 1014 10 16.0934 0 0
5:35 am 05:35 Clear 55 12.7 38 3.4 53 53 WSW 7 11 29.97 1015 10 16.0934 0 0
5:55 am 05:55 Clear 54 12 38 3.5 56 56 WNW 6 9 30 1016 10 16.0934 0 0
6:15 am 06:15 Clear 52 11.1 38 3.5 60 60 Calm 30 1016 10 16.0934 0 0
6:35 am 06:35 Clear 52 11 38 3.5 60 60 WSW 3 6 30 1016 10 16.0934 0 0
6:55 am 06:55 Clear 49 9.4 38 3.3 66 66 Calm 30 1016 10 16.0934 0 0
7:15 am 07:15 Clear 49 9.5 38 3.6 67 67 Calm 30 1016 10 16.0934 0 0
7:35 am 07:35 Sunny 49 9.4 38 3.5 67 67 Calm 30.03 1017 10 16.0934 0 0
7:55 am 07:55 Sunny 46 8 39 3.7 75 75 Calm 30.03 1017 10 16.0934 0 0
8:15 am 08:15 Sunny 46 7.6 39 4 78 78 Calm 30.03 1017 10 16.0934 0 0
8:35 am 08:35 Sunny 47 8.5 42 5.3 81 81 Calm 30.03 1017 10 16.0934 0 0
8:55 am 08:55 Sunny 53 11.4 41 4.9 65 65 Calm 30 1016 10 16.0934 0 0
9:15 am 09:15 Sunny 55 12.6 41 4.8 59 59 W 5 7 30 1016 10 16.0934 0 0
9:35 am 09:35 Sunny 57 14 41 4.8 54 54 WNW 6 9 29.94 1014 10 16.0934 0 0
9:55 am 09:55 Sunny 59 14.9 41 5.1 52 52 WNW 5 7 29.94 1014 10 16.0934 0 0
10:15 am 10:15 Sunny 60 15.5 41 5.2 51 51 W 3 6 29.94 1014 10 16.0934 0 0
10:35 am 10:35 Sunny 62 16.7 40 4.4 44 44 NNW 5 7 29.91 1013 10 16.0934 0 0
10:55 am 10:55 Sunny 64 17.5 41 4.8 43 43 NNE 3 6 29.91 1013 10 16.0934 0 0
11:15 am 11:15 Sunny 65 18.5 42 5.3 42 42 NE 5 7 29.91 1013 10 16.0934 0 0
11:35 am 11:35 Sunny 67 19.5 40 4.2 37 37 NE 5 7 29.91 1013 10 16.0934 0 0
11:55 am 11:55 Sunny 69 20.4 40 4.7 36 36 NE 6 9 29.88 1012 10 16.0934 0 0
12:15 pm 12:15 Sunny 72 22 38 3.5 30 30 ENE 7 11 29.88 1012 10 16.0934 0 0
12:35 pm 12:35 Sunny 73 22.8 36 2.1 26 26 NE 14 22 29.88 1012 10 16.0934 0 0
12:55 pm 12:55 Sunny 74 23.1 36 2.4 26 26 ENE 10 17 29.85 1011 10 16.0934 0 0
1:15 pm 13:15 Sunny 74 23.4 35 1.8 24 24 NE 13 20 29.85 1011 10 16.0934 0 0
1:35 pm 13:35 Sunny 73 22.8 34 1.3 24 24 ENE 9 15 29.88 1012 10 16.0934 0 0
1:55 pm 13:55 Sunny 74 23.1 35 1.4 24 24 NNE 10 17 29.85 1011 10 16.0934 0 0
2:15 pm 14:15 Sunny 74 23.6 35 1.8 24 24 NE 10 17 29.85 1011 10 16.0934 0 0
2:35 pm 14:35 Sunny 74 23.4 34 1 23 23 ENE 12 19 29.83 1010 10 16.0934 0 0
2:55 pm 14:55 Sunny 73 23 35 1.4 24 24 ENE 13 20 29.83 1010 10 16.0934 0 0
3:15 pm 15:15 Sunny 74 23.2 34 1.2 24 24 NE 10 17 29.83 1010 10 16.0934 0 0
3:35 pm 15:35 Sunny 73 23 34 1 23 23 NE 9 15 29.83 1010 10 16.0934 0 0
3:55 pm 15:55 Sunny 74 23.3 35 1.4 24 24 NNE 10 17 29.83 1010 10 16.0934 0 0
4:15 pm 16:15 Sunny 74 23.3 36 2.2 25 25 NE 12 19 29.83 1010 10 16.0934 0 0
4:35 pm 16:35 Sunny 73 22.6 36 2.4 27 27 NNE 12 19 29.85 1011 10 16.0934 0 0
4:55 pm 16:55 Sunny 73 22.5 37 2.5 27 27 NE 13 20 29.85 1011 10 16.0934 0 0
5:15 pm 17:15 Sunny 72 22.3 38 3.1 28 28 NE 12 19 29.85 1011 10 16.0934 0 0
5:35 pm 17:35 Sunny 71 21.5 37 2.7 29 29 NNE 12 19 29.88 1012 10 16.0934 0 0
5:55 pm 17:55 Sunny 70 21.2 37 2.6 29 29 NE 14 22 29.88 1012 10 16.0934 0 0
6:15 pm 18:15 Sunny 68 20.1 37 2.7 32 32 NE 14 22 29.88 1012 10 16.0934 0 0
6:35 pm 18:35 Sunny 67 19.7 37 2.6 32 32 NE 12 19 29.88 1012 10 16.0934 0 0
6:55 pm 18:55 Sunny 66 19.1 37 3 34 34 NE 12 19 29.91 1013 10 16.0934 0 0
7:15 pm 19:15 Sunny 65 18.4 39 4 39 39 ENE 14 22 29.94 1014 10 16.0934 0 0
7:35 pm 19:35 Clear 63 17.3 40 4.3 42 42 NE 15 24 29.94 1014 10 16.0934 0 0
7:55 pm 19:55 Clear 61 16.1 41 5.2 49 49 NE 15 24 29.97 1015 10 16.0934 0 0
8:15 pm 20:15 Clear 59 15.1 42 5.5 53 53 NE 10 17 29.97 1015 10 16.0934 0 0
8:35 pm 20:35 Clear 58 14.5 42 5.7 56 56 NE 13 20 29.97 1015 10 16.0934 0 0
8:55 pm 20:55 Clear 58 14.5 42 5.6 55 55 NE 10 17 30 1016 10 16.0934 0 0
9:15 pm 21:15 Clear 58 14.3 43 6 58 58 NE 12 19 30 1016 10 16.0934 0 0
9:35 pm 21:35 Clear 57 14 43 6.3 60 60 NE 12 19 30 1016 10 16.0934 0 0
9:55 pm 21:55 Clear 57 13.8 44 6.6 62 62 ENE 10 17 30 1016 10 16.0934 0 0
10:15 pm 22:15 Clear 56 13.5 44 6.7 64 64 ENE 13 20 30 1016 10 16.0934 0 0
10:35 pm 22:35 Clear 56 13.5 44 6.9 65 65 ENE 12 19 30 1016 10 16.0934 0 0
10:55 pm 22:55 Clear 56 13.2 45 7 66 66 NE 10 17 30.03 1017 10 16.0934 0 0
11:15 pm 23:15 Clear 55 13 45 7.1 68 68 NE 12 19 30.03 1017 10 16.0934 0 0
11:35 pm 23:35 Clear 55 12.6 45 7.1 69 69 NNE 13 20 30.06 1018 10 16.0934 0 0
11:55 pm 23:55 Clear 54 12.3 45 7.3 72 72 NNE 12 19 30.06 1018 10 16.0934 0 0

Powered by AerisWeather